LQBK

Banja Luka International Airport

Airport
ICAO code
LQBK
IATA Code
BNX
Summary
ICAO Region
EUR
ICAO Territory
Location

Kobatovci, Republika Srpska

Serving
Banja Luka
Elevation
400 ft
Coordinates
44° 56' 34" N , 17° 17' 47" E
KCC
Metar
LQBK 221730Z 20010G20KT CAVOK 14/01 Q1010 NOSIG

Banja Luka International Airport, also known as Mahovljani Airport, is an airport located 11 nm north northeast of the city of Banja Luka.

Climatology

Humid subtropical climate (Köppen climate classification Cfa)

Runways

Designator Length Width Surface Rops
17/35 2503 45 ASP Yes/Yes

Airport map

Aerial View

SKYbrary Partners:

Safety knowledge contributed by: